| time (UTC) | temp F | wind direction | speed knots | gust knots | rain 1hr in | rain 24hr in | rain mn in | humidity % | barometer mb |
| 20260831084533 | 67 | 0 | 0.0 | 0.0 | 0.01 | 0.14 | 0.01 | 97 | 1018.9 |
| 20260831083034 | 67 | 0 | 0.0 | 0.0 | 0.00 | 0.13 | 0.00 | 97 | 1019.0 |
| 20260831081538 | 67 | 0 | 0.0 | 0.0 | 0.00 | 0.13 | 0.00 | 97 | 1019.0 |
| 20260831080055 | 68 | 0 | 0.0 | 0.0 | 0.00 | 0.13 | 0.00 | 97 | 1019.0 |
| 20260831074534 | 68 | 0 | 0.0 | 0.0 | 0.00 | 0.13 | 0.00 | 97 | 1018.9 |
| 20260831073057 | 68 | 0 | 0.0 | 0.0 | 0.00 | 0.13 | 0.00 | 97 | 1019.0 |
| 20260831071537 | 69 | 0 | 0.0 | 0.0 | 0.00 | 0.13 | 0.00 | 97 | 1019.1 |
| 20260831070036 | 69 | 0 | 0.0 | 0.0 | 0.00 | 0.13 | 0.00 | 97 | 1018.9 |
| 20260831064534 | 69 | 0 | 0.0 | 0.0 | 0.00 | 0.13 | 0.00 | 97 | 1018.9 |
| 20260831063036 | 69 | 0 | 0.0 | 0.0 | 0.00 | 0.13 | 0.00 | 97 | 1018.9 |
| 20260831061532 | 69 | 0 | 0.0 | 0.0 | 0.00 | 0.13 | 0.00 | 97 | 1018.9 |
| 20260831060031 | 69 | 0 | 0.0 | 0.0 | 0.00 | 0.13 | 0.00 | 96 | 1018.5 |
| 20260831054532 | 69 | 0 | 0.0 | 0.0 | 0.00 | 0.13 | 0.00 | 97 | 1018.7 |
| 20260831053037 | 70 | 0 | 0.0 | 0.0 | 0.00 | 0.13 | 0.00 | 97 | 1018.5 |
| 20260831051537 | 70 | 0 | 0.0 | 0.0 | 0.00 | 0.13 | 0.00 | 97 | 1018.9 |
| 20260831050035 | 70 | 0 | 0.0 | 0.0 | 0.00 | 0.13 | 0.00 | 97 | 1019.2 |
| 20260831044546 | 70 | 0 | 0.0 | 0.0 | 0.00 | 0.13 | 0.00 | 97 | 1019.2 |
| 20260831043034 | 70 | 0 | 0.0 | 0.0 | 0.00 | 0.13 | 0.00 | 97 | 1019.4 |
| 20260831041540 | 70 | 0 | 0.0 | 0.0 | 0.00 | 0.13 | 0.00 | 96 | 1019.3 |
| 20260831040032 | 71 | 0 | 0.0 | 0.0 | 0.06 | 0.13 | 0.00 | 96 | 1019.5 |
| 20260831034535 | 71 | 0 | 0.0 | 0.0 | 0.06 | 0.13 | 0.13 | 96 | 1019.3 |
| 20260831033038 | 71 | 0 | 0.0 | 0.0 | 0.06 | 0.13 | 0.13 | 96 | 1019.4 |
| 20260831031536 | 71 | 0 | 0.0 | 0.0 | 0.06 | 0.13 | 0.13 | 96 | 1019.3 |
| 20260831030033 | 72 | 0 | 0.0 | 0.0 | 0.00 | 0.07 | 0.07 | 96 | 1019.5 |
| 20260831024532 | 72 | 0 | 0.0 | 0.0 | 0.00 | 0.07 | 0.07 | 96 | 1019.1 |
| 20260831023033 | 72 | 0 | 0.0 | 0.9 | 0.00 | 0.07 | 0.07 | 96 | 1019.5 |
| 20260831021545 | 72 | 0 | 0.0 | 0.0 | 0.03 | 0.07 | 0.07 | 95 | 1019.3 |
| 20260831020031 | 72 | 0 | 0.0 | 1.7 | 0.07 | 0.07 | 0.07 | 95 | 1019.1 |
| 20260831014532 | 72 | 0 | 0.0 | 0.0 | 0.07 | 0.07 | 0.07 | 93 | 1019.0 |
| 20260831013042 | 72 | 0 | 0.0 | 0.0 | 0.07 | 0.07 | 0.07 | 92 | 1019.2 |
| 20260831011543 | 72 | 0 | 0.0 | 0.0 | 0.04 | 0.04 | 0.04 | 91 | 1019.4 |
| 20260831010044 | 72 | 0 | 0.0 | 0.0 | 0.00 | 0.00 | 0.00 | 90 | 1018.9 |
| 20260831004534 | 73 | 0 | 0.0 | 0.0 | 0.00 | 0.00 | 0.00 | 90 | 1018.8 |
| 20260831003034 | 73 | 0 | 0.0 | 0.0 | 0.00 | 0.00 | 0.00 | 89 | 1018.7 |
| 20260831001538 | 73 | 0 | 0.0 | 0.0 | 0.00 | 0.00 | 0.00 | 88 | 1018.5 |
| 20260831000035 | 74 | 0 | 0.0 | 0.0 | 0.00 | 0.00 | 0.00 | 88 | 1018.4 |
| 20260830234534 | 74 | 0 | 0.0 | 0.0 | 0.00 | 0.00 | 0.00 | 87 | 1018.4 |
| 20260830233034 | 75 | 0 | 0.0 | 0.0 | 0.00 | 0.00 | 0.00 | 85 | 1018.6 |
| 20260830231532 | 75 | 0 | 0.0 | 0.0 | 0.00 | 0.00 | 0.00 | 84 | 1018.6 |
| 20260830230034 | 76 | 0 | 0.0 | 0.0 | 0.00 | 0.00 | 0.00 | 83 | 1018.4 |
| 20260830224533 | 77 | 0 | 0.0 | 0.0 | 0.00 | 0.00 | 0.00 | 82 | 1018.4 |
| 20260830223035 | 78 | 0 | 0.0 | 0.9 | 0.00 | 0.00 | 0.00 | 82 | 1018.2 |
| 20260830221534 | 78 | 0 | 0.0 | 0.0 | 0.00 | 0.00 | 0.00 | 81 | 1018.1 |
| 20260830220037 | 78 | 0 | 0.0 | 0.0 | 0.00 | 0.00 | 0.00 | 82 | 1018.3 |
| 20260830214533 | 79 | 0 | 0.0 | 0.9 | 0.00 | 0.00 | 0.00 | 81 | 1018.1 |
| 20260830213034 | 79 | 0 | 0.0 | 0.0 | 0.00 | 0.00 | 0.00 | 79 | 1018.2 |
| 20260830211532 | 80 | 0 | 0.0 | 2.6 | 0.00 | 0.00 | 0.00 | 77 | 1018.2 |
| 20260830210034 | 80 | 260 | 0.0 | 3.5 | 0.00 | 0.00 | 0.00 | 76 | 1018.2 |
| 20260830204535 | 80 | 0 | 0.0 | 3.5 | 0.00 | 0.00 | 0.00 | 77 | 1018.1 |
| 20260830203034 | 80 | 0 | 0.0 | 1.7 | 0.00 | 0.00 | 0.00 | 81 | 1018.3 |
| 20260830201530 | 80 | 0 | 0.0 | 4.3 | 0.00 | 0.00 | 0.00 | 78 | 1018.5 |
| 20260830200033 | 81 | 168 | 0.9 | 5.2 | 0.00 | 0.00 | 0.00 | 74 | 1018.5 |
| 20260830194533 | 81 | 306 | 0.9 | 3.5 | 0.00 | 0.00 | 0.00 | 76 | 1018.7 |
| 20260830193034 | 79 | 0 | 0.0 | 2.6 | 0.00 | 0.00 | 0.00 | 77 | 1018.9 |
| 20260830191534 | 79 | 0 | 0.0 | 0.9 | 0.00 | 0.00 | 0.00 | 80 | 1019.0 |
| 20260830190035 | 79 | 0 | 0.0 | 0.9 | 0.00 | 0.00 | 0.00 | 77 | 1019.2 |
| 20260830184535 | 79 | 0 | 0.0 | 5.2 | 0.00 | 0.00 | 0.00 | 76 | 1019.4 |
| 20260830183036 | 79 | 0 | 0.0 | 3.5 | 0.00 | 0.00 | 0.00 | 78 | 1019.4 |
| 20260830181532 | 79 | 275 | 0.0 | 6.1 | 0.00 | 0.00 | 0.00 | 78 | 1019.7 |
| 20260830180038 | 78 | 0 | 0.0 | 3.5 | 0.00 | 0.00 | 0.00 | 78 | 1019.8 |
| 20260830174550 | 78 | 0 | 0.0 | 8.7 | 0.00 | 0.00 | 0.00 | 79 | 1020.0 |
| 20260830173036 | 77 | 0 | 0.0 | 6.1 | 0.00 | 0.00 | 0.00 | 79 | 1020.2 |
| 20260830171539 | 77 | 291 | 0.0 | 6.1 | 0.00 | 0.00 | 0.00 | 82 | 1020.3 |
| 20260830170036 | 75 | 0 | 0.0 | 0.9 | 0.00 | 0.00 | 0.00 | 85 | 1020.4 |
| 20260830164531 | 75 | 0 | 0.0 | 0.0 | 0.00 | 0.00 | 0.00 | 83 | 1020.8 |
| 20260830163045 | 76 | 0 | 0.0 | 2.6 | 0.00 | 0.00 | 0.00 | 81 | 1020.9 |
| 20260830161542 | 76 | 0 | 0.0 | 3.5 | 0.00 | 0.00 | 0.00 | 83 | 1020.9 |
| 20260830160034 | 75 | 0 | 0.0 | 3.5 | 0.00 | 0.00 | 0.00 | 84 | 1021.0 |
| 20260830154536 | 73 | 0 | 0.0 | 1.7 | 0.00 | 0.00 | 0.00 | 87 | 1021.3 |
| 20260830153036 | 72 | 0 | 0.0 | 0.9 | 0.00 | 0.00 | 0.00 | 88 | 1021.4 |
| 20260830151542 | 71 | 0 | 0.0 | 2.6 | 0.00 | 0.00 | 0.00 | 90 | 1021.4 |
| 20260830150034 | 69 | 0 | 0.0 | 0.9 | 0.00 | 0.00 | 0.00 | 92 | 1021.4 |
| 20260830144535 | 67 | 0 | 0.0 | 0.0 | 0.00 | 0.00 | 0.00 | 94 | 1021.6 |
| 20260830143034 | 66 | 0 | 0.0 | 0.0 | 0.00 | 0.00 | 0.00 | 95 | 1021.8 |
| 20260830141533 | 65 | 0 | 0.0 | 0.0 | 0.00 | 0.00 | 0.00 | 94 | 1021.9 |
| 20260830140035 | 65 | 0 | 0.0 | 0.0 | 0.00 | 0.00 | 0.00 | 94 | 1021.9 |
| 20260830134533 | 64 | 0 | 0.0 | 0.0 | 0.00 | 0.00 | 0.00 | 94 | 1022.2 |
| 20260830133040 | 64 | 0 | 0.0 | 0.0 | 0.00 | 0.00 | 0.00 | 96 | 1022.4 |
| 20260830131533 | 63 | 0 | 0.0 | 0.0 | 0.00 | 0.00 | 0.00 | 96 | 1022.5 |
| 20260830130042 | 62 | 0 | 0.0 | 0.0 | 0.00 | 0.00 | 0.00 | 96 | 1022.7 |
| 20260830124539 | 61 | 0 | 0.0 | 0.0 | 0.00 | 0.00 | 0.00 | 96 | 1022.5 |
| 20260830123035 | 61 | 0 | 0.0 | 0.0 | 0.00 | 0.00 | 0.00 | 97 | 1022.7 |
| 20260830121536 | 60 | 0 | 0.0 | 0.0 | 0.00 | 0.00 | 0.00 | 97 | 1022.8 |
| 20260830120034 | 59 | 0 | 0.0 | 0.0 | 0.00 | 0.00 | 0.00 | 97 | 1022.8 |
| 20260830114531 | 58 | 0 | 0.0 | 0.0 | 0.00 | 0.00 | 0.00 | 97 | 1022.7 |
| 20260830113038 | 58 | 0 | 0.0 | 0.0 | 0.00 | 0.00 | 0.00 | 97 | 1022.8 |
| 20260830111532 | 57 | 0 | 0.0 | 0.0 | 0.00 | 0.00 | 0.00 | 96 | 1022.8 |
| 20260830110042 | 57 | 0 | 0.0 | 0.0 | 0.00 | 0.00 | 0.00 | 96 | 1022.7 |
| 20260830104537 | 57 | 0 | 0.0 | 0.0 | 0.00 | 0.00 | 0.00 | 96 | 1022.7 |
| 20260830103034 | 56 | 0 | 0.0 | 0.0 | 0.00 | 0.00 | 0.00 | 96 | 1022.8 |
| 20260830101538 | 56 | 0 | 0.0 | 0.0 | 0.00 | 0.00 | 0.00 | 95 | 1022.7 |
| 20260830100031 | 56 | 0 | 0.0 | 0.0 | 0.00 | 0.00 | 0.00 | 95 | 1022.5 |
| 20260830094555 | 55 | 0 | 0.0 | 0.0 | 0.00 | 0.00 | 0.00 | 94 | 1022.6 |
| 20260830093031 | 55 | 0 | 0.0 | 0.0 | 0.00 | 0.00 | 0.00 | 93 | 1022.5 |
| 20260830091533 | 55 | 0 | 0.0 | 0.0 | 0.00 | 0.00 | 0.00 | 93 | 1022.5 |
| 20260830090031 | 55 | 0 | 0.0 | 0.0 | 0.00 | 0.00 | 0.00 | 93 | 1022.5 |